Weather History for Rotterdam, Netherlands

Change the Weather History Date:

Saturday, April 21, 2012

  Actual Average Record
Temperature  
Mean Temperature 47 °F -  
Max Temperature 53 °F 60 °F 75 °F (2011)
Min Temperature 41 °F 44 °F 26 °F (1997)
Degree Days  
Heating Degree Days 18    
Moisture  
Dew Point 41 °F    
Average Humidity 82    
Maximum Humidity 93    
Minimum Humidity 53    
Precipitation  
Precipitation 0.02 in - - ()
Sea Level Pressure  
Sea Level Pressure 29.44 in    
Wind  
Wind Speed 9 mph ()    
Max Wind Speed 15 mph    
Max Gust Speed 23 mph    
Visibility 6.7 miles    
Events Rain    
Averages and records for this station are not official NWS values.
T = Trace of Precipitation, MM = Missing Value Source: Averaged Metar Reports

Daily Weather History Graph

Daily Weather History Graph

Search for Another Location

Airport:

Trip Planner

Search our weather history database for the weather conditions in past years. The results will help you decide how hot, cold, wet, or windy it might be!

Date:

Astronomy

Apr. 21, 2012 Rise Set
Actual Time 6:32 AM CEST 8:50 PM CEST
Civil Twilight 5:55 AM CEST 9:27 PM CEST
Nautical Twilight 5:08 AM CEST 10:14 PM CEST
Astronomical Twilight 4:14 AM CEST 11:09 PM CEST
Moon 6:15 AM CEST (4/21) 9:25 PM CEST (4/21)
Length of Visible Light 15h 32m
Length of Day
14h 18m
New Moon, 0% of the Moon is Illuminated
Apr 21
New Moon
Apr 29
First Quarter
May 6
Full
May 12
Last Quarter
May 21
New

Hourly Weather History & Observations

Time (CEST) Temp. Windchill Dew Point Humidity Pressure Visibility Wind Dir Wind Speed Gust Speed Precip Events Conditions
12:25 AM 44.6 °F 40.2 °F 42.8 °F 93% 29.42 in 6.2 mi SSE 8.1 mph - N/A Rain Light Rain
12:55 AM 44.6 °F 40.7 °F 41.0 °F 87% 29.42 in 6.2 mi SSE 6.9 mph - N/A   Unknown
1:25 AM 42.8 °F 38.0 °F 41.0 °F 93% 29.42 in 6.2 mi SSE 8.1 mph - N/A   Unknown
1:55 AM 42.8 °F 38.0 °F 41.0 °F 93% 29.42 in 6.2 mi South 8.1 mph - N/A   Unknown
2:00 AM 43 °F - 41 °F 90% 29.43 in 7 mi South 6.7 mph - -   Partly Cloudy
2:25 AM 42.8 °F 38.6 °F 41.0 °F 93% 29.42 in 6.2 mi South 6.9 mph - N/A   Unknown
2:55 AM 42.8 °F 38.0 °F 41.0 °F 93% 29.42 in 6.2 mi South 8.1 mph - N/A   Unknown
3:25 AM 44.6 °F 40.2 °F 41.0 °F 87% 29.39 in 6.2 mi South 8.1 mph - N/A   Scattered Clouds
3:55 AM 44.6 °F 39.7 °F 41.0 °F 87% 29.39 in 6.2 mi South 9.2 mph - N/A   Partly Cloudy
4:25 AM 44.6 °F 40.2 °F 42.8 °F 93% 29.39 in 5.6 mi South 8.1 mph - N/A   Light Drizzle
4:55 AM 44.6 °F 40.2 °F 42.8 °F 93% 29.39 in 5.0 mi South 8.1 mph - N/A   Mostly Cloudy
5:00 AM 44 °F - 42 °F 91% 29.39 in 5 mi South 8.9 mph - - Rain Light Drizzle
5:25 AM 44.6 °F 38.8 °F 42.8 °F 93% 29.39 in 5.0 mi South 11.5 mph - N/A Rain Light Rain Showers
5:55 AM 44.6 °F 40.2 °F 41.0 °F 87% 29.39 in 6.2 mi South 8.1 mph - N/A Rain Light Rain
6:25 AM 44.6 °F 39.2 °F 41.0 °F 87% 29.36 in 6.2 mi South 10.4 mph - N/A Rain Light Rain
6:55 AM 44.6 °F 39.7 °F 42.8 °F 93% 29.36 in 6.2 mi South 9.2 mph - N/A   Light Drizzle
7:25 AM 44.6 °F 38.8 °F 41.0 °F 87% 29.36 in 6.2 mi South 11.5 mph 23.0 mph N/A   Overcast
7:55 AM 44.6 °F 39.2 °F 42.8 °F 93% 29.39 in 6.2 mi South 10.4 mph - N/A   Mostly Cloudy
8:00 AM 45 °F - 42 °F 86% 29.39 in 10 mi South 11.2 mph - -   Partly Cloudy
8:25 AM 44.6 °F 39.2 °F 41.0 °F 87% 29.36 in 6.2 mi South 10.4 mph - N/A Rain Light Rain
8:55 AM 44.6 °F 38.1 °F 41.0 °F 87% 29.39 in 6.2 mi SSW 13.8 mph - N/A   Light Drizzle
9:25 AM 44.6 °F 38.1 °F 41.0 °F 87% 29.39 in 6.2 mi SSW 13.8 mph - N/A   Mostly Cloudy
9:55 AM 44.6 °F 37.8 °F 41.0 °F 87% 29.39 in 6.2 mi SSW 15.0 mph - N/A   Overcast
10:25 AM 46.4 °F 40.7 °F 41.0 °F 81% 29.39 in 6.2 mi SSW 12.7 mph - N/A   Mostly Cloudy
10:55 AM 46.4 °F 40.7 °F 41.0 °F 81% 29.39 in 6.2 mi SSW 12.7 mph - N/A   Mostly Cloudy
11:00 AM 47 °F - 43 °F 80% 29.42 in 12 mi SSW 11.2 mph - -   Overcast
11:25 AM 42.8 °F 36.6 °F 41.0 °F 93% 29.42 in 6.2 mi WSW 11.5 mph - N/A Rain Light Rain
11:55 AM 46.4 °F 41.5 °F 42.8 °F 87% 29.42 in 6.2 mi SW 10.4 mph - N/A   Mostly Cloudy
12:25 PM 46.4 °F 40.7 °F 41.0 °F 81% 29.42 in 6.2 mi SW 12.7 mph - N/A   Overcast
12:55 PM 46.4 °F 41.1 °F 41.0 °F 81% 29.44 in 6.2 mi WSW 11.5 mph - N/A   Mostly Cloudy
1:25 PM 50.0 °F - 44.6 °F 82% 29.44 in 6.2 mi SW 12.7 mph - N/A   Mostly Cloudy
1:55 PM 50.0 °F - 41.0 °F 71% 29.44 in 6.2 mi WSW 11.5 mph - N/A   Mostly Cloudy
2:00 PM 51 °F - 40 °F 57% 29.46 in 22 mi WSW 13.4 mph - -   Partly Cloudy
2:25 PM 50.0 °F - 39.2 °F 66% 29.44 in 6.2 mi West 11.5 mph - N/A   Mostly Cloudy
2:55 PM 50.0 °F - 39.2 °F 66% 29.44 in 6.2 mi West 11.5 mph - N/A   Mostly Cloudy
3:25 PM 51.8 °F - 41.0 °F 67% 29.44 in 6.2 mi WSW 11.5 mph - N/A   Partly Cloudy
3:55 PM 50.0 °F - 39.2 °F 66% 29.44 in 6.2 mi West 10.4 mph - N/A   Mostly Cloudy
4:25 PM 51.8 °F - 41.0 °F 67% 29.44 in 6.2 mi West 10.4 mph - N/A   Partly Cloudy
4:55 PM 51.8 °F - 37.4 °F 58% 29.44 in 6.2 mi West 9.2 mph - N/A   Partly Cloudy
5:00 PM 51 °F - 39 °F 53% 29.47 in 17 mi West 8.9 mph - -   Scattered Clouds
5:25 PM 50.0 °F - 39.2 °F 66% 29.44 in 6.2 mi West 8.1 mph - N/A   Partly Cloudy
5:55 PM 50.0 °F - 37.4 °F 62% 29.44 in 6.2 mi West 9.2 mph - N/A   Partly Cloudy
6:25 PM 48.2 °F - 39.2 °F 71% 29.47 in 6.2 mi SSW 11.5 mph - N/A   Overcast
6:55 PM 46.4 °F 41.9 °F 39.2 °F 76% 29.47 in 6.2 mi South 9.2 mph - N/A   Scattered Clouds
7:25 PM 46.4 °F 42.4 °F 41.0 °F 81% 29.47 in 6.2 mi South 8.1 mph - N/A   Mostly Cloudy
7:55 PM 46.4 °F 42.9 °F 42.8 °F 87% 29.47 in 6.2 mi South 6.9 mph - N/A Rain Rain Showers
8:00 PM 46 °F - 42 °F 81% 29.50 in 6 mi SSW 6.7 mph - - Rain Light Rain Showers
8:25 PM 46.4 °F 44.3 °F 42.8 °F 87% 29.50 in 6.2 mi SW 4.6 mph - N/A   Overcast
8:55 PM 44.6 °F 40.2 °F 41.0 °F 87% 29.50 in 6.2 mi West 8.1 mph - N/A   Unknown
9:25 PM 44.6 °F 40.7 °F 41.0 °F 87% 29.50 in 6.2 mi WSW 6.9 mph - N/A   Partly Cloudy
9:55 PM 42.8 °F 38.6 °F 39.2 °F 87% 29.53 in 6.2 mi SW 6.9 mph - N/A   Unknown
10:25 PM 41.0 °F 35.8 °F 39.2 °F 93% 29.53 in 6.2 mi SW 8.1 mph - N/A   Unknown
10:55 PM 44.6 °F 39.7 °F 39.2 °F 81% 29.53 in 6.2 mi SW 9.2 mph - N/A   Unknown
11:00 PM 44 °F - 40 °F 80% 29.55 in 19 mi SW 8.9 mph - -   Overcast
11:25 PM 44.6 °F 40.7 °F 41.0 °F 87% 29.53 in 6.2 mi South 6.9 mph - N/A   Partly Cloudy
11:55 PM 44.6 °F 39.2 °F 41.0 °F 87% 29.53 in 6.2 mi South 10.4 mph - N/A   Unknown